WIF623 ENTC-ENBR

Flight info

Callsign WIF623
Flight time 1h 55m
Altitude 24000
Route AMIMO3B AMIMO DCT LUNUR LUNUR3P
Aircraft DH8D/M-SDE2E3FGRY/H

Departure

Time 2026-04-28 13:37
Airport Tromsø Airport (ENTC)

Arrival

Time 2026-04-28 15:33
Airport Bergen Airport, Flesland (ENBR)
Time Latitude Longitude Altitude Speed Heading
2026-04-28 13:05 69.68050 18.90983 -8 ft 0 kts 283°
2026-04-28 13:30 69.68050 18.90982 -7 ft 0 kts 283°
2026-04-28 13:30 69.68048 18.91002 -7 ft 2 kts 283°
2026-04-28 13:30 69.68045 18.91044 -6 ft 2 kts 283°
2026-04-28 13:31 69.68041 18.91091 -5 ft 0 kts 283°
2026-04-28 13:33 69.68047 18.91077 -5 ft 2 kts 347°
2026-04-28 13:33 69.68053 18.91149 -3 ft 6 kts 88°
2026-04-28 13:33 69.68066 18.91278 0 ft 6 kts 48°
2026-04-28 13:34 69.68161 18.91386 0 ft 20 kts 12°
2026-04-28 13:34 69.68285 18.91469 -2 ft 15 kts 12°
2026-04-28 13:34 69.68388 18.91501 -4 ft 14 kts
2026-04-28 13:34 69.68491 18.91530 -8 ft 15 kts 13°
2026-04-28 13:35 69.68597 18.91599 -12 ft 15 kts 13°
2026-04-28 13:35 69.68698 18.91665 -15 ft 13 kts 12°
2026-04-28 13:35 69.68769 18.91723 -15 ft 9 kts 40°
2026-04-28 13:35 69.68774 18.91866 -12 ft 8 kts 104°
2026-04-28 13:36 69.68758 18.92047 -8 ft 7 kts 104°
2026-04-28 13:36 69.68741 18.92138 -3 ft 7 kts 154°
2026-04-28 13:36 69.68683 18.92125 -2 ft 12 kts 192°
2026-04-28 13:36 69.68330 18.91887 4 ft 94 kts 193°
2026-04-28 13:37 69.67494 18.91319 63 ft 142 kts 195°
2026-04-28 13:37 69.66515 18.90578 575 ft 150 kts 196°
2026-04-28 13:37 69.65489 18.89837 1118 ft 161 kts 195°
2026-04-28 13:37 69.64407 18.89093 1745 ft 164 kts 195°
2026-04-28 13:38 69.63281 18.88340 2217 ft 172 kts 195°
2026-04-28 13:38 69.62129 18.87577 2805 ft 173 kts 195°
2026-04-28 13:38 69.60950 18.86796 3391 ft 175 kts 195°
2026-04-28 13:38 69.59739 18.85988 3792 ft 189 kts 195°
2026-04-28 13:39 69.58432 18.85128 4215 ft 197 kts 194°
2026-04-28 13:39 69.57131 18.83977 4750 ft 199 kts 206°
2026-04-28 13:39 69.55898 18.82182 5290 ft 202 kts 210°
2026-04-28 13:39 69.54665 18.80324 5862 ft 203 kts 210°
2026-04-28 13:40 69.53387 18.78397 6179 ft 219 kts 210°
2026-04-28 13:40 69.52014 18.76343 6605 ft 226 kts 210°
2026-04-28 13:40 69.50603 18.74242 7100 ft 231 kts 210°
2026-04-28 13:40 69.49174 18.72118 7624 ft 235 kts 210°
2026-04-28 13:41 69.47725 18.69969 8118 ft 240 kts 210°
2026-04-28 13:41 69.46251 18.67790 8650 ft 243 kts 210°
2026-04-28 13:41 69.44728 18.65540 9154 ft 248 kts 210°
2026-04-28 13:41 69.43196 18.63281 9673 ft 252 kts 210°
2026-04-28 13:42 69.41637 18.60987 10159 ft 256 kts 211°
2026-04-28 13:42 69.40060 18.58671 10654 ft 259 kts 211°
2026-04-28 13:42 69.38457 18.56319 11178 ft 262 kts 211°
2026-04-28 13:42 69.36845 18.53961 11663 ft 265 kts 211°
2026-04-28 13:43 69.35210 18.51572 12196 ft 266 kts 211°
2026-04-28 13:43 69.33556 18.49159 12668 ft 270 kts 211°
2026-04-28 13:43 69.31869 18.46797 13142 ft 275 kts 208°
2026-04-28 13:43 69.30128 18.44643 13643 ft 277 kts 207°
2026-04-28 13:44 69.28364 18.42487 14104 ft 281 kts 208°
2026-04-28 13:44 69.26587 18.40313 14620 ft 282 kts 207°
2026-04-28 13:44 69.24789 18.38108 15085 ft 285 kts 208°
2026-04-28 13:44 69.22970 18.35875 15518 ft 288 kts 208°
2026-04-28 13:45 69.21116 18.33602 15995 ft 291 kts 207°
2026-04-28 13:45 69.19260 18.31325 16455 ft 293 kts 207°
2026-04-28 13:45 69.17414 18.29064 16938 ft 295 kts 207°
2026-04-28 13:45 69.15539 18.26769 17359 ft 297 kts 207°
2026-04-28 13:46 69.13643 18.24451 17821 ft 298 kts 207°
2026-04-28 13:46 69.11735 18.22122 18246 ft 301 kts 207°
2026-04-28 13:46 69.09807 18.19772 18599 ft 304 kts 207°
2026-04-28 13:46 69.07870 18.17417 18940 ft 306 kts 208°
2026-04-28 13:47 69.05917 18.15046 19349 ft 307 kts 208°
2026-04-28 13:47 69.03981 18.12700 19706 ft 310 kts 208°
2026-04-28 13:47 69.01997 18.10300 20072 ft 312 kts 208°
2026-04-28 13:47 69.00009 18.07900 20385 ft 313 kts 208°
2026-04-28 13:48 68.97999 18.05479 20710 ft 315 kts 208°
2026-04-28 13:48 68.96010 18.03087 20983 ft 317 kts 208°
2026-04-28 13:48 68.93981 18.00652 21271 ft 320 kts 208°
2026-04-28 13:48 68.91941 17.98210 21543 ft 321 kts 208°
2026-04-28 13:49 68.89893 17.95735 21752 ft 323 kts 210°
2026-04-28 13:49 68.87924 17.92879 22021 ft 320 kts 216°
2026-04-28 13:49 68.85975 17.89829 22221 ft 323 kts 216°
2026-04-28 13:49 68.84033 17.86794 22442 ft 324 kts 216°
2026-04-28 13:50 68.82072 17.83739 22620 ft 326 kts 216°
2026-04-28 13:50 68.80088 17.80654 22864 ft 325 kts 216°
2026-04-28 13:50 68.78111 17.77595 23036 ft 328 kts 216°
2026-04-28 13:50 68.76156 17.74575 23213 ft 328 kts 216°
2026-04-28 13:51 68.74157 17.71498 23397 ft 330 kts 216°
2026-04-28 13:51 68.72141 17.68401 23561 ft 331 kts 216°
2026-04-28 13:51 68.70144 17.65341 23753 ft 332 kts 217°
2026-04-28 13:51 68.68123 17.62251 23903 ft 334 kts 217°
2026-04-28 13:52 68.66111 17.59183 24097 ft 333 kts 217°
2026-04-28 13:52 68.64076 17.56085 24257 ft 334 kts 217°
2026-04-28 13:52 68.62042 17.52992 24333 ft 339 kts 217°
2026-04-28 13:52 68.59975 17.49852 24355 ft 344 kts 217°
2026-04-28 13:53 68.57865 17.46656 24376 ft 349 kts 217°
2026-04-28 13:53 68.55749 17.43459 24371 ft 355 kts 217°
2026-04-28 13:53 68.53574 17.40183 24376 ft 359 kts 217°
2026-04-28 13:53 68.51410 17.36931 24381 ft 363 kts 216°
2026-04-28 13:54 68.49192 17.33608 24376 ft 367 kts 215°
2026-04-28 13:54 68.46931 17.30226 24368 ft 371 kts 215°
2026-04-28 13:54 68.44669 17.26851 24342 ft 374 kts 215°
2026-04-28 13:54 68.42390 17.23459 24339 ft 377 kts 215°
2026-04-28 13:55 68.40090 17.20045 24314 ft 379 kts 215°
2026-04-28 13:55 68.37807 17.16666 24318 ft 379 kts 215°
2026-04-28 13:55 68.35480 17.13232 24327 ft 379 kts 215°
2026-04-28 13:55 68.33198 17.09868 24320 ft 379 kts 215°
2026-04-28 13:56 68.30866 17.06438 24304 ft 380 kts 215°
2026-04-28 13:56 68.28570 17.03070 24300 ft 380 kts 215°
2026-04-28 13:56 68.26250 16.99674 24298 ft 379 kts 215°
2026-04-28 13:56 68.23925 16.96278 24290 ft 379 kts 215°
2026-04-28 13:57 68.21618 16.92912 24289 ft 380 kts 215°
2026-04-28 13:57 68.19324 16.89575 24293 ft 379 kts 216°
2026-04-28 13:57 68.16969 16.86163 24280 ft 379 kts 215°
2026-04-28 13:57 68.14667 16.82829 24287 ft 379 kts 215°
2026-04-28 13:58 68.12362 16.79499 24287 ft 380 kts 216°
2026-04-28 13:58 68.10029 16.76136 24287 ft 380 kts 215°
2026-04-28 13:58 68.07716 16.72810 24285 ft 380 kts 215°
2026-04-28 13:58 68.05409 16.69499 24282 ft 380 kts 216°
2026-04-28 13:59 68.03065 16.66143 24274 ft 381 kts 215°
2026-04-28 13:59 68.00751 16.62835 24269 ft 381 kts 216°
2026-04-28 13:59 67.98412 16.59505 24273 ft 381 kts 216°
2026-04-28 13:59 67.96106 16.56225 24273 ft 381 kts 215°
2026-04-28 14:00 67.93747 16.52878 24274 ft 382 kts 215°
2026-04-28 14:00 67.91425 16.49594 24280 ft 382 kts 216°
2026-04-28 14:00 67.89094 16.46299 24282 ft 381 kts 215°
2026-04-28 14:00 67.86826 16.42763 24281 ft 374 kts 223°
2026-04-28 14:01 67.84779 16.38716 24280 ft 372 kts 226°
2026-04-28 14:01 67.82739 16.34583 24303 ft 371 kts 225°
2026-04-28 14:01 67.80688 16.30437 24302 ft 372 kts 225°
2026-04-28 14:01 67.78633 16.26293 24298 ft 372 kts 225°
2026-04-28 14:02 67.76566 16.22146 24282 ft 373 kts 225°
2026-04-28 14:02 67.74522 16.18059 24273 ft 373 kts 225°
2026-04-28 14:02 67.72465 16.13956 24276 ft 373 kts 225°
2026-04-28 14:02 67.70409 16.09868 24268 ft 373 kts 225°
2026-04-28 14:03 67.68346 16.05776 24269 ft 373 kts 225°
2026-04-28 14:03 67.66267 16.01663 24281 ft 372 kts 225°
2026-04-28 14:03 67.64198 15.97583 24290 ft 373 kts 225°
2026-04-28 14:03 67.62131 15.93516 24301 ft 372 kts 225°
2026-04-28 14:04 67.60061 15.89453 24319 ft 373 kts 225°
2026-04-28 14:04 67.58016 15.85450 24322 ft 373 kts 225°
2026-04-28 14:04 67.55924 15.81361 24332 ft 373 kts 225°
2026-04-28 14:04 67.53858 15.77331 24348 ft 373 kts 225°
2026-04-28 14:05 67.51793 15.73312 24340 ft 373 kts 225°
2026-04-28 14:05 67.49714 15.69279 24324 ft 374 kts 225°
2026-04-28 14:05 67.47631 15.65251 24353 ft 373 kts 225°
2026-04-28 14:05 67.45571 15.61269 24387 ft 372 kts 225°
2026-04-28 14:06 67.43486 15.57239 24373 ft 373 kts 225°
2026-04-28 14:06 67.41414 15.53258 24380 ft 373 kts 225°
2026-04-28 14:06 67.39317 15.49230 24390 ft 374 kts 225°
2026-04-28 14:06 67.37247 15.45266 24400 ft 374 kts 225°
2026-04-28 14:07 67.35133 15.41231 24402 ft 374 kts 225°
2026-04-28 14:07 67.33071 15.37299 24384 ft 375 kts 225°
2026-04-28 14:07 67.30971 15.33304 24402 ft 375 kts 224°
2026-04-28 14:07 67.28879 15.29334 24406 ft 376 kts 224°
2026-04-28 14:08 67.26765 15.25326 24411 ft 376 kts 224°
2026-04-28 14:08 67.24673 15.21374 24405 ft 377 kts 224°
2026-04-28 14:08 67.22551 15.17375 24401 ft 377 kts 225°
2026-04-28 14:08 67.20438 15.13398 24402 ft 377 kts 224°
2026-04-28 14:09 67.18340 15.09461 24399 ft 377 kts 224°
2026-04-28 14:09 67.16205 15.05461 24390 ft 378 kts 224°
2026-04-28 14:09 67.14088 15.01503 24387 ft 379 kts 224°
2026-04-28 14:09 67.11982 14.97574 24370 ft 379 kts 224°
2026-04-28 14:10 67.09828 14.93573 24374 ft 379 kts 224°
2026-04-28 14:10 67.07708 14.89641 24378 ft 379 kts 224°
2026-04-28 14:10 67.05576 14.85690 24387 ft 379 kts 224°
2026-04-28 14:10 67.03445 14.81752 24392 ft 380 kts 224°
2026-04-28 14:11 67.01329 14.77850 24397 ft 380 kts 224°
2026-04-28 14:11 66.99195 14.73923 24408 ft 380 kts 224°
2026-04-28 14:11 66.97031 14.69950 24397 ft 380 kts 224°
2026-04-28 14:11 66.94888 14.66021 24382 ft 381 kts 224°
2026-04-28 14:12 66.92746 14.62107 24358 ft 382 kts 224°
2026-04-28 14:12 66.90608 14.58205 24337 ft 383 kts 224°
2026-04-28 14:12 66.88424 14.54232 24308 ft 383 kts 224°
2026-04-28 14:12 66.86256 14.50297 24296 ft 383 kts 224°
2026-04-28 14:13 66.84096 14.46387 24303 ft 381 kts 224°
2026-04-28 14:13 66.81958 14.42522 24295 ft 381 kts 224°
2026-04-28 14:13 66.79822 14.38671 24293 ft 381 kts 224°
2026-04-28 14:13 66.77661 14.34783 24290 ft 380 kts 224°
2026-04-28 14:14 66.75507 14.30916 24305 ft 379 kts 223°
2026-04-28 14:14 66.73376 14.27096 24305 ft 379 kts 223°
2026-04-28 14:14 66.71207 14.23218 24322 ft 379 kts 224°
2026-04-28 14:14 66.69080 14.19423 24317 ft 380 kts 224°
2026-04-28 14:15 66.66911 14.15559 24307 ft 380 kts 223°
2026-04-28 14:15 66.64778 14.11769 24306 ft 381 kts 223°
2026-04-28 14:15 66.62596 14.07902 24324 ft 380 kts 224°
2026-04-28 14:15 66.60463 14.04125 24306 ft 381 kts 224°
2026-04-28 14:16 66.58287 14.00285 24307 ft 381 kts 224°
2026-04-28 14:16 66.56117 13.96464 24301 ft 381 kts 224°
2026-04-28 14:16 66.53964 13.92680 24298 ft 381 kts 224°
2026-04-28 14:16 66.51807 13.88901 24320 ft 381 kts 224°
2026-04-28 14:17 66.49633 13.85098 24336 ft 380 kts 224°
2026-04-28 14:17 66.47462 13.81307 24355 ft 380 kts 224°
2026-04-28 14:17 66.45303 13.77546 24356 ft 381 kts 224°
2026-04-28 14:17 66.43149 13.73800 24375 ft 381 kts 224°
2026-04-28 14:18 66.40976 13.70029 24372 ft 381 kts 224°
2026-04-28 14:18 66.38824 13.66307 24379 ft 381 kts 224°
2026-04-28 14:18 66.36629 13.62513 24376 ft 381 kts 224°
2026-04-28 14:18 66.34474 13.58800 24372 ft 382 kts 224°
2026-04-28 14:19 66.32285 13.55035 24386 ft 382 kts 224°
2026-04-28 14:19 66.30134 13.51343 24400 ft 382 kts 224°
2026-04-28 14:19 66.27946 13.47596 24392 ft 382 kts 224°
2026-04-28 14:19 66.25755 13.43852 24390 ft 383 kts 224°
2026-04-28 14:20 66.23577 13.40138 24392 ft 383 kts 224°
2026-04-28 14:20 66.21383 13.36404 24380 ft 384 kts 224°
2026-04-28 14:20 66.19199 13.32696 24370 ft 385 kts 223°
2026-04-28 14:20 66.16994 13.28961 24358 ft 385 kts 223°
2026-04-28 14:21 66.14799 13.25250 24369 ft 385 kts 223°
2026-04-28 14:21 66.12594 13.21530 24372 ft 385 kts 223°
2026-04-28 14:21 66.10380 13.17803 24378 ft 385 kts 223°
2026-04-28 14:21 66.08164 13.14081 24379 ft 386 kts 223°
2026-04-28 14:22 66.05978 13.10418 24393 ft 386 kts 223°
2026-04-28 14:22 66.03754 13.06697 24379 ft 387 kts 223°
2026-04-28 14:22 66.01540 13.03002 24381 ft 387 kts 223°
2026-04-28 14:22 65.99343 12.99344 24387 ft 386 kts 223°
2026-04-28 14:23 65.97118 12.95646 24396 ft 387 kts 223°
2026-04-28 14:23 65.94892 12.91955 24380 ft 387 kts 223°
2026-04-28 14:23 65.92664 12.88267 24385 ft 387 kts 223°
2026-04-28 14:23 65.90462 12.84632 24389 ft 387 kts 223°
2026-04-28 14:24 65.88218 12.80937 24395 ft 386 kts 223°
2026-04-28 14:24 65.86021 12.77326 24400 ft 385 kts 223°
2026-04-28 14:24 65.83798 12.73675 24398 ft 385 kts 223°
2026-04-28 14:24 65.81586 12.70054 24399 ft 385 kts 223°
2026-04-28 14:25 65.79369 12.66432 24402 ft 384 kts 223°
2026-04-28 14:25 65.77165 12.62838 24404 ft 384 kts 223°
2026-04-28 14:25 65.74970 12.59269 24413 ft 383 kts 223°
2026-04-28 14:25 65.72750 12.55664 24409 ft 383 kts 223°
2026-04-28 14:26 65.70560 12.52115 24421 ft 383 kts 223°
2026-04-28 14:26 65.68359 12.48556 24430 ft 383 kts 223°
2026-04-28 14:26 65.66138 12.44973 24417 ft 383 kts 223°
2026-04-28 14:26 65.63918 12.41397 24424 ft 383 kts 223°
2026-04-28 14:27 65.61711 12.37850 24428 ft 383 kts 223°
2026-04-28 14:27 65.59499 12.34302 24426 ft 383 kts 222°
2026-04-28 14:27 65.57296 12.30777 24428 ft 383 kts 222°
2026-04-28 14:27 65.55096 12.27265 24424 ft 383 kts 222°
2026-04-28 14:28 65.52881 12.23733 24428 ft 384 kts 222°
2026-04-28 14:28 65.50662 12.20204 24418 ft 384 kts 222°
2026-04-28 14:28 65.48424 12.16651 24412 ft 384 kts 222°
2026-04-28 14:28 65.46195 12.13120 24420 ft 384 kts 222°
2026-04-28 14:29 65.43991 12.09647 24430 ft 383 kts 222°
2026-04-28 14:29 65.41780 12.06156 24421 ft 383 kts 222°
2026-04-28 14:29 65.39536 12.02620 24418 ft 383 kts 222°
2026-04-28 14:29 65.37320 11.99134 24412 ft 383 kts 222°
2026-04-28 14:30 65.35088 11.95638 24411 ft 383 kts 222°
2026-04-28 14:30 65.32892 11.92207 24409 ft 384 kts 222°
2026-04-28 14:30 65.30650 11.88702 24406 ft 385 kts 222°
2026-04-28 14:30 65.28432 11.85250 24431 ft 384 kts 222°
2026-04-28 14:31 65.26189 11.81765 24412 ft 384 kts 221°
2026-04-28 14:31 65.23957 11.78302 24407 ft 384 kts 222°
2026-04-28 14:31 65.21705 11.74812 24402 ft 385 kts 222°
2026-04-28 14:31 65.19473 11.71360 24409 ft 385 kts 222°
2026-04-28 14:32 65.17245 11.67927 24423 ft 385 kts 222°
2026-04-28 14:32 65.15002 11.64476 24427 ft 385 kts 222°
2026-04-28 14:32 65.12773 11.61053 24415 ft 386 kts 222°
2026-04-28 14:32 65.10523 11.57602 24416 ft 386 kts 222°
2026-04-28 14:33 65.08281 11.54172 24414 ft 386 kts 222°
2026-04-28 14:33 65.06015 11.50715 24419 ft 386 kts 222°
2026-04-28 14:33 65.03786 11.47321 24426 ft 386 kts 222°
2026-04-28 14:33 65.01539 11.43904 24427 ft 386 kts 222°
2026-04-28 14:34 64.97047 11.37096 24425 ft 386 kts 222°
2026-04-28 14:34 64.94777 11.33666 24423 ft 387 kts 221°
2026-04-28 14:34 64.92512 11.30251 24423 ft 387 kts 220°
2026-04-28 14:35 64.90257 11.26856 24428 ft 388 kts 220°
2026-04-28 14:35 64.88011 11.23484 24430 ft 387 kts 221°
2026-04-28 14:35 64.85733 11.20072 24432 ft 386 kts 221°
2026-04-28 14:35 64.83483 11.16706 24429 ft 386 kts 220°
2026-04-28 14:36 64.81219 11.13327 24429 ft 386 kts 221°
2026-04-28 14:36 64.78974 11.09984 24426 ft 386 kts 220°
2026-04-28 14:36 64.76711 11.06620 24432 ft 386 kts 221°
2026-04-28 14:36 64.74435 11.03241 24435 ft 386 kts 221°
2026-04-28 14:37 64.72194 10.99923 24430 ft 385 kts 221°
2026-04-28 14:37 64.69920 10.96564 24423 ft 385 kts 221°
2026-04-28 14:37 64.67677 10.93255 24427 ft 385 kts 221°
2026-04-28 14:37 64.65405 10.89911 24422 ft 385 kts 221°
2026-04-28 14:38 64.63165 10.86619 24422 ft 386 kts 221°
2026-04-28 14:38 64.60911 10.83315 24416 ft 385 kts 221°
2026-04-28 14:38 64.58624 10.79969 24420 ft 385 kts 221°
2026-04-28 14:38 64.56387 10.76703 24412 ft 385 kts 221°
2026-04-28 14:39 64.54129 10.73412 24417 ft 385 kts 220°
2026-04-28 14:39 64.51842 10.70084 24412 ft 386 kts 221°
2026-04-28 14:39 64.49603 10.66834 24412 ft 386 kts 220°
2026-04-28 14:39 64.47317 10.63522 24403 ft 386 kts 221°
2026-04-28 14:40 64.45052 10.60246 24395 ft 386 kts 221°
2026-04-28 14:40 64.43520 10.58036 24399 ft 386 kts 220°
2026-04-28 14:40 64.40506 10.53694 24389 ft 386 kts 220°
2026-04-28 14:40 64.38224 10.50414 24381 ft 386 kts 221°
2026-04-28 14:41 64.35967 10.47176 24388 ft 385 kts 221°
2026-04-28 14:41 64.33707 10.43945 24388 ft 384 kts 221°
2026-04-28 14:41 64.31452 10.40721 24390 ft 384 kts 221°
2026-04-28 14:41 64.29163 10.37457 24387 ft 385 kts 221°
2026-04-28 14:42 64.26907 10.34244 24387 ft 385 kts 220°
2026-04-28 14:42 64.24641 10.31026 24394 ft 386 kts 220°
2026-04-28 14:42 64.22380 10.27820 24401 ft 386 kts 219°
2026-04-28 14:42 64.20098 10.24591 24408 ft 386 kts 219°
2026-04-28 14:43 64.17828 10.21384 24407 ft 386 kts 220°
2026-04-28 14:43 64.15526 10.18139 24407 ft 386 kts 219°
2026-04-28 14:43 64.13258 10.14949 24410 ft 387 kts 219°
2026-04-28 14:43 64.10974 10.11741 24409 ft 387 kts 219°
2026-04-28 14:44 64.08681 10.08528 24417 ft 388 kts 220°
2026-04-28 14:44 64.06383 10.05315 24419 ft 388 kts 220°
2026-04-28 14:44 64.04082 10.02103 24414 ft 388 kts 219°
2026-04-28 14:44 64.01794 9.98917 24410 ft 388 kts 219°
2026-04-28 14:45 63.99495 9.95721 24417 ft 389 kts 219°
2026-04-28 14:45 63.97206 9.92545 24419 ft 388 kts 219°
2026-04-28 14:45 63.94913 9.89370 24427 ft 388 kts 219°
2026-04-28 14:45 63.92612 9.86190 24426 ft 388 kts 219°
2026-04-28 14:46 63.90303 9.83005 24420 ft 388 kts 219°
2026-04-28 14:46 63.88031 9.79877 24420 ft 388 kts 219°
2026-04-28 14:46 63.85735 9.76722 24410 ft 388 kts 219°
2026-04-28 14:46 63.83421 9.73550 24411 ft 387 kts 219°
2026-04-28 14:47 63.81130 9.70414 24415 ft 387 kts 219°
2026-04-28 14:47 63.78828 9.67269 24420 ft 387 kts 219°
2026-04-28 14:47 63.76550 9.64162 24426 ft 386 kts 219°
2026-04-28 14:47 63.74251 9.61033 24427 ft 386 kts 219°
2026-04-28 14:48 63.71961 9.57922 24432 ft 386 kts 219°
2026-04-28 14:48 63.69666 9.54810 24428 ft 386 kts 219°
2026-04-28 14:48 63.67394 9.51735 24427 ft 386 kts 219°
2026-04-28 14:48 63.65094 9.48628 24419 ft 386 kts 219°
2026-04-28 14:49 63.62795 9.45530 24421 ft 386 kts 219°
2026-04-28 14:49 63.60496 9.42437 24420 ft 386 kts 219°
2026-04-28 14:49 63.58193 9.39344 24422 ft 386 kts 219°
2026-04-28 14:49 63.55899 9.36270 24420 ft 385 kts 219°
2026-04-28 14:50 63.53621 9.33220 24403 ft 386 kts 218°
2026-04-28 14:50 63.51334 9.30167 24407 ft 386 kts 218°
2026-04-28 14:50 63.49008 9.27067 24410 ft 386 kts 218°
2026-04-28 14:50 63.46732 9.24039 24410 ft 386 kts 218°
2026-04-28 14:51 63.44424 9.20974 24401 ft 387 kts 218°
2026-04-28 14:51 63.42114 9.17912 24399 ft 386 kts 218°
2026-04-28 14:51 63.39836 9.14901 24399 ft 385 kts 218°
2026-04-28 14:51 63.37527 9.11853 24391 ft 384 kts 218°
2026-04-28 14:52 63.35252 9.08857 24397 ft 384 kts 218°
2026-04-28 14:52 63.32962 9.05845 24401 ft 383 kts 218°
2026-04-28 14:52 63.30670 9.02835 24392 ft 383 kts 218°
2026-04-28 14:52 63.28386 8.99844 24400 ft 383 kts 218°
2026-04-28 14:53 63.26087 8.96835 24400 ft 383 kts 218°
2026-04-28 14:53 63.23818 8.93872 24395 ft 383 kts 218°
2026-04-28 14:53 63.21532 8.90893 24402 ft 383 kts 218°
2026-04-28 14:53 63.19237 8.87908 24394 ft 383 kts 218°
2026-04-28 14:54 63.16940 8.84925 24392 ft 383 kts 218°
2026-04-28 14:54 63.14651 8.81958 24380 ft 383 kts 218°
2026-04-28 14:54 63.12351 8.78983 24378 ft 383 kts 218°
2026-04-28 14:54 63.10072 8.76041 24383 ft 383 kts 218°
2026-04-28 14:55 63.07791 8.73101 24383 ft 383 kts 217°
2026-04-28 14:55 63.05467 8.70111 24389 ft 382 kts 218°
2026-04-28 14:55 63.03176 8.67169 24392 ft 383 kts 217°
2026-04-28 14:55 63.00897 8.64249 24402 ft 382 kts 217°
2026-04-28 14:56 62.98626 8.61344 24411 ft 383 kts 217°
2026-04-28 14:56 62.96304 8.58377 24410 ft 383 kts 217°
2026-04-28 14:56 62.94024 8.55471 24411 ft 383 kts 218°
2026-04-28 14:56 62.91723 8.52543 24409 ft 383 kts 217°
2026-04-28 14:57 62.89412 8.49610 24409 ft 383 kts 217°
2026-04-28 14:57 62.87906 8.47700 24411 ft 382 kts 217°
2026-04-28 14:57 62.84853 8.43837 24408 ft 381 kts 217°
2026-04-28 14:57 62.82555 8.40935 24400 ft 381 kts 217°
2026-04-28 14:58 62.80270 8.38054 24393 ft 381 kts 217°
2026-04-28 14:58 62.77982 8.35174 24391 ft 380 kts 218°
2026-04-28 14:58 62.75688 8.32292 24387 ft 381 kts 216°
2026-04-28 14:58 62.73399 8.29421 24370 ft 381 kts 216°
2026-04-28 14:59 62.71105 8.26549 24355 ft 381 kts 216°
2026-04-28 14:59 62.68809 8.23681 24357 ft 381 kts 216°
2026-04-28 14:59 62.66533 8.20842 24353 ft 380 kts 216°
2026-04-28 14:59 62.64234 8.17981 24361 ft 380 kts 216°
2026-04-28 15:00 62.61957 8.15151 24359 ft 380 kts 216°
2026-04-28 15:00 62.59669 8.12312 24356 ft 380 kts 216°
2026-04-28 15:00 62.57393 8.09494 24351 ft 380 kts 216°
2026-04-28 15:00 62.55094 8.06652 24338 ft 380 kts 216°
2026-04-28 15:01 62.52814 8.03837 24317 ft 381 kts 216°
2026-04-28 15:01 62.50512 8.01001 24303 ft 381 kts 216°
2026-04-28 15:01 62.48204 7.98166 24296 ft 380 kts 216°
2026-04-28 15:01 62.45927 7.95373 24307 ft 380 kts 216°
2026-04-28 15:02 62.43619 7.92546 24320 ft 379 kts 216°
2026-04-28 15:02 62.41356 7.89778 24328 ft 379 kts 216°
2026-04-28 15:02 62.39077 7.86995 24338 ft 379 kts 216°
2026-04-28 15:02 62.36785 7.84202 24341 ft 379 kts 216°
2026-04-28 15:03 62.34507 7.81430 24342 ft 379 kts 216°
2026-04-28 15:03 62.32202 7.78632 24340 ft 379 kts 216°
2026-04-28 15:03 62.29909 7.75852 24327 ft 379 kts 216°
2026-04-28 15:03 62.27627 7.73091 24317 ft 379 kts 216°
2026-04-28 15:04 62.25337 7.70324 24316 ft 379 kts 216°
2026-04-28 15:04 62.23035 7.67549 24309 ft 379 kts 216°
2026-04-28 15:04 62.20751 7.64800 24313 ft 379 kts 216°
2026-04-28 15:04 62.18481 7.62073 24308 ft 379 kts 216°
2026-04-28 15:05 62.16159 7.59288 24313 ft 379 kts 216°
2026-04-28 15:05 62.13885 7.56565 24317 ft 379 kts 215°
2026-04-28 15:05 62.11597 7.53830 24321 ft 379 kts 216°
2026-04-28 15:05 62.09295 7.51084 24319 ft 379 kts 216°
2026-04-28 15:06 62.07018 7.48371 24317 ft 379 kts 216°
2026-04-28 15:06 62.04718 7.45637 24328 ft 378 kts 215°
2026-04-28 15:06 62.02414 7.42901 24326 ft 379 kts 216°
2026-04-28 15:06 62.00126 7.40191 24320 ft 379 kts 216°
2026-04-28 15:07 61.97836 7.37482 24312 ft 379 kts 216°
2026-04-28 15:07 61.95535 7.34765 24311 ft 379 kts 214°
2026-04-28 15:07 61.93232 7.32052 24319 ft 379 kts 214°
2026-04-28 15:07 61.90942 7.29357 24314 ft 380 kts 214°
2026-04-28 15:08 61.88616 7.26624 24306 ft 380 kts 214°
2026-04-28 15:08 61.86326 7.23939 24305 ft 379 kts 214°
2026-04-28 15:08 61.84011 7.21230 24303 ft 379 kts 214°
2026-04-28 15:08 61.81705 7.18535 24302 ft 379 kts 214°
2026-04-28 15:09 61.79419 7.15864 24295 ft 379 kts 214°
2026-04-28 15:09 61.77096 7.13141 24294 ft 379 kts 214°
2026-04-28 15:09 61.74824 7.10483 24299 ft 379 kts 214°
2026-04-28 15:09 61.72503 7.07771 24310 ft 378 kts 214°
2026-04-28 15:10 61.70223 7.05114 24317 ft 377 kts 215°
2026-04-28 15:10 61.67926 7.02435 24073 ft 385 kts 214°
2026-04-28 15:10 61.65572 6.99693 23791 ft 391 kts 214°
2026-04-28 15:10 61.63152 6.96882 23471 ft 395 kts 214°
2026-04-28 15:11 61.60792 6.94160 23142 ft 388 kts 214°
2026-04-28 15:11 61.58443 6.91460 22827 ft 385 kts 214°
2026-04-28 15:11 61.56105 6.88766 22505 ft 385 kts 214°
2026-04-28 15:11 61.53777 6.86086 22190 ft 384 kts 213°
2026-04-28 15:12 61.51423 6.83381 21874 ft 384 kts 213°
2026-04-28 15:12 61.49079 6.80693 21547 ft 384 kts 214°
2026-04-28 15:12 61.46759 6.78036 21223 ft 384 kts 213°
2026-04-28 15:12 61.44421 6.75362 20894 ft 381 kts 213°
2026-04-28 15:13 61.42136 6.72761 20578 ft 376 kts 214°
2026-04-28 15:13 61.39851 6.70160 20258 ft 374 kts 214°
2026-04-28 15:13 61.37584 6.67583 19938 ft 371 kts 213°
2026-04-28 15:13 61.35321 6.65013 19635 ft 370 kts 213°
2026-04-28 15:14 61.33094 6.62484 19325 ft 370 kts 213°
2026-04-28 15:14 61.30827 6.59915 19009 ft 370 kts 213°
2026-04-28 15:14 61.28550 6.57413 18712 ft 371 kts 211°
2026-04-28 15:14 61.26260 6.55019 18417 ft 371 kts 211°
2026-04-28 15:15 61.23959 6.52628 18140 ft 370 kts 210°
2026-04-28 15:15 61.21657 6.50240 17868 ft 370 kts 210°
2026-04-28 15:15 61.19377 6.47878 17605 ft 369 kts 210°
2026-04-28 15:15 61.17088 6.45510 17347 ft 367 kts 211°
2026-04-28 15:16 61.14801 6.43145 17095 ft 366 kts 211°
2026-04-28 15:16 61.12548 6.40820 16843 ft 365 kts 211°
2026-04-28 15:16 61.10291 6.38493 16593 ft 364 kts 210°
2026-04-28 15:16 61.08042 6.36177 16340 ft 363 kts 210°
2026-04-28 15:17 61.05787 6.33860 16018 ft 364 kts 210°
2026-04-28 15:17 61.03500 6.31511 15668 ft 365 kts 209°
2026-04-28 15:17 61.01244 6.29198 15323 ft 366 kts 209°
2026-04-28 15:17 60.98976 6.26877 14983 ft 366 kts 209°
2026-04-28 15:18 60.96716 6.24535 14683 ft 364 kts 210°
2026-04-28 15:18 60.94493 6.22040 14237 ft 367 kts 212°
2026-04-28 15:18 60.92273 6.19510 13622 ft 360 kts 211°
2026-04-28 15:18 60.90150 6.17104 13267 ft 344 kts 212°
2026-04-28 15:19 60.88079 6.14751 12987 ft 336 kts 212°
2026-04-28 15:19 60.86058 6.12452 12715 ft 332 kts 212°
2026-04-28 15:19 60.84039 6.10154 12449 ft 333 kts 212°
2026-04-28 15:19 60.82039 6.07881 12179 ft 333 kts 212°
2026-04-28 15:20 60.79995 6.05564 11900 ft 333 kts 212°
2026-04-28 15:20 60.77975 6.03279 11625 ft 333 kts 212°
2026-04-28 15:20 60.75950 6.00994 11348 ft 333 kts 212°
2026-04-28 15:20 60.73927 5.98714 11075 ft 332 kts 212°
2026-04-28 15:21 60.71926 5.96464 10811 ft 330 kts 211°
2026-04-28 15:21 60.69909 5.94200 10544 ft 329 kts 211°
2026-04-28 15:21 60.67936 5.91987 10283 ft 327 kts 211°
2026-04-28 15:21 60.65935 5.89749 10017 ft 326 kts 211°
2026-04-28 15:22 60.63945 5.87524 9756 ft 324 kts 211°
2026-04-28 15:22 60.62012 5.85373 9484 ft 310 kts 211°
2026-04-28 15:22 60.60183 5.83350 9241 ft 296 kts 211°
2026-04-28 15:22 60.58394 5.81364 9018 ft 289 kts 211°
2026-04-28 15:23 60.56639 5.79407 8791 ft 288 kts 212°
2026-04-28 15:23 60.54886 5.77457 8554 ft 287 kts 211°
2026-04-28 15:23 60.53141 5.75520 8318 ft 284 kts 211°
2026-04-28 15:23 60.51424 5.73620 8092 ft 279 kts 211°
2026-04-28 15:24 60.49739 5.71760 7869 ft 274 kts 211°
2026-04-28 15:24 60.48065 5.69908 7366 ft 280 kts 211°
2026-04-28 15:24 60.46374 5.68045 6992 ft 272 kts 211°
2026-04-28 15:24 60.44746 5.66258 6719 ft 264 kts 211°
2026-04-28 15:25 60.43155 5.64505 6490 ft 258 kts 211°
2026-04-28 15:25 60.41605 5.62801 6271 ft 252 kts 211°
2026-04-28 15:25 60.40075 5.61122 6068 ft 245 kts 211°
2026-04-28 15:25 60.38606 5.59512 5876 ft 238 kts 211°
2026-04-28 15:26 60.37154 5.57916 5685 ft 243 kts 211°
2026-04-28 15:26 60.35636 5.56237 5482 ft 252 kts 211°
2026-04-28 15:26 60.34099 5.54549 5282 ft 254 kts 211°
2026-04-28 15:26 60.32551 5.52859 5060 ft 253 kts 211°
2026-04-28 15:27 60.31002 5.51170 4852 ft 251 kts 211°
2026-04-28 15:27 60.29465 5.49493 4647 ft 250 kts 211°
2026-04-28 15:27 60.27949 5.47842 4442 ft 249 kts 211°
2026-04-28 15:27 60.26421 5.46179 4243 ft 249 kts 210°
2026-04-28 15:28 60.24890 5.44521 4034 ft 247 kts 210°
2026-04-28 15:28 60.23376 5.42989 3829 ft 243 kts 208°
2026-04-28 15:28 60.21880 5.41520 3629 ft 238 kts 208°
2026-04-28 15:28 60.20433 5.40101 3412 ft 226 kts 209°
2026-04-28 15:29 60.19187 5.38300 3121 ft 217 kts 231°
2026-04-28 15:29 60.18396 5.35820 2850 ft 206 kts 252°
2026-04-28 15:29 60.18086 5.33130 2584 ft 195 kts 270°
2026-04-28 15:29 60.18220 5.30495 2345 ft 185 kts 288°
2026-04-28 15:30 60.18725 5.28172 2104 ft 177 kts 305°
2026-04-28 15:30 60.19501 5.26355 1871 ft 170 kts 321°
2026-04-28 15:30 60.20468 5.25091 1649 ft 164 kts 336°
2026-04-28 15:30 60.21536 5.24425 1439 ft 159 kts 350°
2026-04-28 15:31 60.22601 5.24107 1228 ft 153 kts 349°
2026-04-28 15:31 60.23647 5.23740 1030 ft 153 kts 348°
2026-04-28 15:31 60.24670 5.23362 1029 ft 141 kts 348°
2026-04-28 15:31 60.25568 5.23090 862 ft 126 kts 350°
2026-04-28 15:32 60.26433 5.22783 636 ft 125 kts 349°
2026-04-28 15:32 60.27293 5.22497 393 ft 124 kts 349°
2026-04-28 15:32 60.28138 5.22216 204 ft 124 kts 350°
2026-04-28 15:32 60.28894 5.21963 162 ft 78 kts 351°
2026-04-28 15:33 60.29228 5.21849 157 ft 30 kts 350°
2026-04-28 15:33 60.29362 5.21844 152 ft 10 kts 41°
2026-04-28 15:33 60.29384 5.21957 154 ft 6 kts 77°
2026-04-28 15:33 60.29388 5.22013 155 ft 2 kts 82°
2026-04-28 15:34 60.29391 5.22055 156 ft 4 kts 82°
2026-04-28 15:34 60.29342 5.22140 158 ft 16 kts 173°
2026-04-28 15:34 60.29222 5.22178 162 ft 19 kts 170°
2026-04-28 15:34 60.29088 5.22223 165 ft 19 kts 171°
2026-04-28 15:35 60.28965 5.22261 168 ft 17 kts 168°
2026-04-28 15:35 60.28747 5.22330 167 ft 12 kts 173°
2026-04-28 15:35 60.28684 5.22397 167 ft 8 kts 108°
2026-04-28 15:36 60.28667 5.22507 169 ft 9 kts 106°
2026-04-28 15:36 60.28670 5.22638 169 ft 9 kts 78°
2026-04-28 15:36 60.28668 5.22764 171 ft 9 kts 107°
2026-04-28 15:36 60.28653 5.22872 173 ft 6 kts 82°
2026-04-28 15:37 60.28657 5.22924 176 ft 1 kts 79°
2026-04-28 15:37 60.28657 5.22925 176 ft 0 kts 79°